Flag for Rwanda Weather past 2 weeks in Butare, Rwanda

Now
70 °F

Scattered clouds.


Feels Like: 70 °F
Forecast: 59 / 73 °F
Wind: 5 mph from Southwest

Location: Kigali Airport

Current Time: Oct 24, 2014 at 9:28:57 AM

Latest Report: Oct 24, 2014 at 9:00 AM


Visibility: N/A

Pressure: 30.18 "Hg

Humidity: 88%

Dew point: 66 °F

Location of ButareLocation

Historic Weather in Butare — Graph

°F

Butare temperature yesterday

Maximum temperature yesterday: 77 °F (at 12:30 PM)
Minimum temperature yesterday: 64 °F (at 1:30 AM)
Average temperature yesterday: 69 °F

Past Weeks' High & Low Weather Summary

 TemperatureHumidityPressure
High86 °F (Oct 10, 2:30 PM)100% (Oct 10, 1:00 AM)30.24 "Hg (Oct 10, 1:00 AM)
Low34 °F (Oct 20, 10:00 AM)37% (Oct 11, 4:30 PM)29.98 "Hg (Oct 17, 3:00 PM)
Average71 °F78%30.11 "Hg
* Reported Oct 9 8:00 AM — Oct 24 8:30 AM, Butare, Weather by CustomWeather, © 2014

Note: Actual official high and low records may vary slightly from our data, if they occured in-between our weather recording intervals... More about our weather records

Advertising

Butare weather history for previous 24 hours

 ConditionsComfort  
Time TempWeatherWind HumidityBarometerVisibility
8:30 AM
Oct 24
68 °FScattered clouds.6 mph94%30.18 "Hg5 mi
8:00 AM66 °FScattered clouds.3 mph100%30.18 "Hg5 mi
7:30 AM66 °FScattered clouds.No wind100%30.15 "HgN/A
7:00 AM64 °FScattered clouds.No wind100%30.15 "HgN/A
6:30 AM63 °FPassing clouds.No wind100%30.12 "HgN/A
6:00 AM61 °FPassing clouds.No wind100%30.12 "HgN/A
5:30 AM63 °FPassing clouds.No wind100%30.09 "HgN/A
5:00 AM63 °FPassing clouds.No wind100%30.09 "HgN/A
4:00 AM63 °FPassing clouds.3 mph100%30.09 "HgN/A
3:00 AM63 °FMild.3 mph100%30.09 "HgN/A
2:30 AM63 °FPassing clouds.3 mph100%30.09 "HgN/A
2:00 AM64 °FPassing clouds.3 mph100%30.09 "HgN/A
1:30 AM63 °FPassing clouds.3 mph100%30.09 "HgN/A
1:00 AM63 °FPassing clouds.3 mph100%30.09 "HgN/A
12:30 AM63 °FPassing clouds.3 mph100%30.12 "HgN/A
12:00 AM63 °FPassing clouds.3 mph100%30.12 "HgN/A
11:30 PM
Oct 23
64 °FPartly cloudy.No wind100%30.15 "HgN/A
5:00 PM66 °FThunderstorms. Partly sunny.15 mph94%30.09 "HgN/A
4:30 PM68 °FThunderstorms. Partly sunny.15 mph94%30.09 "HgN/A
4:00 PM72 °FThunderstorms. Partly sunny.8 mph83%30.07 "HgN/A
3:30 PM75 °FThunderstorms. Partly sunny.3 mph69%30.07 "HgN/A
3:00 PM73 °FThunderstorms. Partly sunny.8 mph78%30.07 "HgN/A
2:30 PM72 °FThunderstorms. Partly sunny.8 mph88%30.07 "HgN/A
2:00 PM72 °FThunderstorms. Partly sunny.7 mph83%30.09 "HgN/A
1:30 PM73 °FThunderstorms. Partly sunny.No wind74%30.09 "Hg5 mi
1:00 PM75 °FThunderstorms. Partly sunny.No wind74%30.12 "Hg5 mi
12:30 PM77 °FScattered clouds.3 mph69%30.12 "HgN/A
11:30 AM73 °FScattered clouds.3 mph74%30.15 "HgN/A
11:00 AM72 °FPartly sunny.5 mph88%30.18 "HgN/A
10:30 AM72 °FScattered showers. Partly sunny.13 mph88%30.21 "Hg4 mi
10:00 AM73 °FPartly sunny.12 mph78%30.21 "HgN/A
9:30 AM72 °FBroken clouds.10 mph83%30.21 "HgN/A
9:00 AM72 °FPartly sunny.10 mph88%30.21 "HgN/A
Weather by CustomWeather, © 2014

See weather overviewHow to use our weather pages